Find Kosmos-2300

NORAD ID: 23442 Int'l Des: 1994-086 Owner: VKS Country: RU operational
LEOCIRCULARPOLAR

現在のビュー

3D地球を読み込み中...

Kosmos-2300について

説明を読み込み中...

次回通過

Passes for default location (London). Set your location on the main map for personalized predictions.

高度履歴

Loading altitude history...

軌道要素

1 23442U 94086B 26151.47135285 .00000020 00000-0 54889-4 0 9992
2 23442 82.5620 314.4543 0001334 277.3953 137.3868 12.62806786448481
Epoch: May 31, 2026 • Age: 8 hours

現在のステータス

高度 1413.8 km
速度 7.15 km/s
衛星直下点 14.62°N, 49.54°W
打ち上げ日 Dec 26, 1994
運用期間 31.4 years
タイプ other

技術仕様

分類 Payload
質量 225.00 kg
乾燥質量 225.00 kg
総質量 225.00 kg
長さ 1.60 m
直径 0.80 m
スパン 7.00 m
形状 Cyl + Ant
製造者 NPOPMR
バスタイプ Strela-3
フェーズステータス In Orbit
所有者/国 VKS/RU

Most Searched